SHIJIAN-21 (SJ-21)

Last updated on Tue Sep 22 2026 00:03:15 GMT+0000 (Coordinated Universal Time)

1 49330U 21094A 26264.63445435 -.00000349 00000+0 00000+0 0 9994 2 49330 5.3359 60.5224 0053748 171.5954 124.5172 1.00262937 6327
UTC large
Height (km)
Speed (km/s)
/
Latitude / Longitude
Inclination (degrees)
Orbital Period (minutes)
Azimuth
Elevation
Range (km)
Doppler Factor

Next 0 passes for location: London (51.5072 / 0.1276)

No passes found over London.
SHIJIAN-21 (SJ-21)